Location: Sabalos
(43.2860°N, 0.1414°E)
Time: 21:10:48
(UTC+00:00)

SPOT 5 - Pass Details

Date: 05 July 2020
Orbit: 622 x 815 km, 98.3° (Epoch: 14 August)

Event Time Altitude Azimuth Distance (km) Brightness Sun altitude
Exits shadow 21:13:55 19° 139° (SE) 1,729 4.2 -13.3°
Maximum altitude 21:17:17 50° 72° (ENE) 939 3.3 -13.7°
Drops below altitude 10° 21:21:57 10° 357° (N) 2,201 6.2 -14.2°
Sets 21:24:12 0° 353° (N) 3,094 7.2 -14.5°
